| time (UTC) | temp F | wind direction | speed knots | gust knots | rain 1hr in | rain 24hr in | rain mn in | humidity % | barometer mb |
| 20260504041558 | 49 | 164 | 0.0 | 0.0 | 0.00 | 0.00 | 0.00 | 80 | 992.2 |
| 20260504034603 | 50 | 164 | 0.0 | 0.9 | 0.00 | 0.00 | 0.00 | 75 | 992.2 |
| 20260504033057 | 50 | 163 | 0.0 | 0.0 | 0.00 | 0.00 | 0.00 | 74 | 992.1 |
| 20260504031619 | 51 | 163 | 0.0 | 0.0 | 0.00 | 0.00 | 0.00 | 73 | 992.0 |
| 20260504024503 | 53 | 163 | 0.0 | 0.0 | 0.00 | 0.00 | 0.00 | 70 | 991.7 |
| 20260504023003 | 54 | 163 | 0.0 | 0.0 | 0.00 | 0.00 | 0.00 | 66 | 991.4 |
| 20260504021501 | 55 | 163 | 0.0 | 0.0 | 0.00 | 0.00 | 0.00 | 64 | 991.3 |
| 20260504014555 | 57 | 163 | 0.0 | 0.0 | 0.00 | 0.00 | 0.00 | 59 | 991.5 |
| 20260504013056 | 58 | 163 | 0.0 | 0.9 | 0.00 | 0.00 | 0.00 | 56 | 991.2 |
| 20260504011553 | 60 | 163 | 0.0 | 0.0 | 0.00 | 0.00 | 0.00 | 55 | 991.1 |
| 20260504004557 | 62 | 163 | 0.0 | 0.0 | 0.00 | 0.00 | 0.00 | 52 | 990.9 |
| 20260504003056 | 63 | 163 | 0.0 | 0.9 | 0.00 | 0.00 | 0.00 | 50 | 990.8 |
| 20260504001556 | 65 | 164 | 0.0 | 0.9 | 0.00 | 0.00 | 0.00 | 46 | 990.8 |
| 20260503234627 | 67 | 254 | 0.0 | 3.5 | 0.00 | 0.00 | 0.00 | 43 | 990.7 |
| 20260503233057 | 68 | 309 | 0.0 | 2.6 | 0.00 | 0.00 | 0.00 | 45 | 990.7 |
| 20260503231556 | 69 | 248 | 0.0 | 4.3 | 0.00 | 0.00 | 0.00 | 44 | 990.9 |
| 20260503224546 | 70 | 219 | 0.9 | 2.6 | 0.00 | 0.00 | 0.00 | 44 | 991.0 |
| 20260503223045 | 70 | 300 | 0.9 | 2.6 | 0.00 | 0.00 | 0.00 | 45 | 991.0 |
| 20260503221554 | 70 | 247 | 0.9 | 3.5 | 0.00 | 0.00 | 0.00 | 45 | 991.0 |
| 20260503214539 | 70 | 163 | 0.9 | 6.1 | 0.00 | 0.00 | 0.00 | 47 | 991.3 |
| 20260503213041 | 69 | 231 | 0.9 | 6.1 | 0.00 | 0.00 | 0.00 | 46 | 991.4 |
| 20260503211534 | 70 | 303 | 0.9 | 4.3 | 0.00 | 0.00 | 0.00 | 44 | 991.6 |
| 20260503204530 | 69 | 144 | 0.9 | 3.5 | 0.00 | 0.00 | 0.00 | 47 | 992.1 |
| 20260503203028 | 69 | 236 | 1.7 | 6.1 | 0.00 | 0.00 | 0.00 | 45 | 992.2 |
| 20260503201527 | 70 | 77 | 1.7 | 5.2 | 0.00 | 0.00 | 0.00 | 46 | 992.6 |
| 20260503194524 | 68 | 65 | 1.7 | 7.0 | 0.00 | 0.00 | 0.00 | 47 | 993.3 |
| 20260503193021 | 68 | 11 | 0.9 | 3.5 | 0.00 | 0.00 | 0.00 | 50 | 993.6 |
| 20260503191522 | 67 | 107 | 1.7 | 6.1 | 0.00 | 0.00 | 0.00 | 48 | 993.7 |
| 20260503190019 | 68 | 296 | 0.9 | 3.5 | 0.00 | 0.00 | 0.00 | 44 | 993.8 |
| 20260503184517 | 67 | 298 | 1.7 | 7.0 | 0.00 | 0.00 | 0.00 | 46 | 993.9 |
| 20260503181516 | 65 | 105 | 1.7 | 7.0 | 0.00 | 0.00 | 0.00 | 52 | 994.4 |
| 20260503180014 | 64 | 19 | 1.7 | 4.3 | 0.00 | 0.00 | 0.00 | 48 | 994.6 |
| 20260503174510 | 63 | 24 | 0.9 | 3.5 | 0.00 | 0.00 | 0.00 | 47 | 994.8 |
| 20260503171600 | 62 | 189 | 1.7 | 4.3 | 0.00 | 0.00 | 0.00 | 48 | 995.2 |
| 20260503110106 | 41 | 94 | 0.0 | 0.0 | 0.00 | 0.00 | 0.00 | 91 | 995.0 |
| 20260503081531 | 43 | 71 | 0.0 | 0.0 | 0.00 | 0.00 | 0.00 | 86 | 993.8 |
| 20260503071530 | 45 | 32 | 0.0 | 0.0 | 0.00 | 0.00 | 0.00 | 85 | 993.5 |
| 20260503054513 | 48 | 11 | 0.0 | 0.9 | 0.00 | 0.00 | 0.00 | 79 | 993.3 |
| 20260503053011 | 48 | 11 | 0.0 | 0.0 | 0.00 | 0.00 | 0.00 | 79 | 993.4 |
| 20260503051513 | 49 | 11 | 0.0 | 1.7 | 0.00 | 0.00 | 0.00 | 77 | 993.2 |
| 20260503050021 | 49 | 284 | 0.0 | 0.9 | 0.00 | 0.00 | 0.00 | 77 | 993.1 |
| 20260503044509 | 50 | 284 | 0.0 | 1.7 | 0.00 | 0.00 | 0.00 | 76 | 992.9 |
| 20260503043008 | 51 | 70 | 0.0 | 3.5 | 0.00 | 0.00 | 0.00 | 74 | 992.9 |